Weather History for Prague, Czech Republic

Change the Weather History Date:

Friday, September 23, 2011

  Actual Average Record
Temperature  
Mean Temperature 57 °F -  
Max Temperature 64 °F 58 °F 75 °F (1999)
Min Temperature 50 °F 41 °F 37 °F (1997)
Degree Days  
Heating Degree Days 8    
Growing Degree Days 7 (Base 50)    
Moisture  
Dew Point 48 °F    
Average Humidity 74    
Maximum Humidity 100    
Minimum Humidity 34    
Precipitation  
Precipitation 0.00 in 0.04 in - ()
Sea Level Pressure  
Sea Level Pressure 30.10 in    
Wind  
Wind Speed 6 mph ()    
Max Wind Speed 13 mph    
Max Gust Speed -    
Visibility 7.6 miles    
Events      
Averages and records for this station are not official NWS values.
T = Trace of Precipitation, MM = Missing Value Source: Averaged Metar Reports

Daily Weather History Graph

Daily Weather History Graph

Search for Another Location

Airport:

Trip Planner

Search our weather history database for the weather conditions in past years. The results will help you decide how hot, cold, wet, or windy it might be!

Date:

Astronomy

Sep. 23, 2011 Rise Set
Actual Time 6:50 AM CEST 6:59 PM CEST
Civil Twilight 6:17 AM CEST 7:32 PM CEST
Nautical Twilight 5:39 AM CEST 8:10 PM CEST
Astronomical Twilight 4:59 AM CEST 8:49 PM CEST
Moon 1:30 AM CEST (9/23) 4:42 PM CEST (9/23)
Length of Visible Light 13h 14m
Length of Day
12h 09m
Waning Crescent, 22% of the Moon is Illuminated
Sep 23
Waning Crescent
Sep 27
New
Oct 4
First Quarter
Oct 12
Full
Oct 20
Last Quarter

Hourly Weather History & Observations

Time (CEST) Temp. Dew Point Humidity Pressure Visibility Wind Dir Wind Speed Gust Speed Precip Events Conditions
12:00 AM 55.4 °F 51.8 °F 88% 30.12 in 6.2 mi WSW 8.1 mph - N/A   Partly Cloudy
12:30 AM 55.4 °F 51.8 °F 88% 30.12 in 6.2 mi WSW 6.9 mph - N/A   Partly Cloudy
1:00 AM 55.4 °F 51.8 °F 88% 30.12 in - WSW 5.8 mph - N/A   Clear
1:30 AM 55.4 °F 51.8 °F 88% 30.12 in - WSW 5.8 mph - N/A   Clear
2:00 AM 56 °F 51 °F 78% 30.13 in 25 mi West 6.7 mph - -   Mostly Cloudy
2:00 AM 55.4 °F 51.8 °F 88% 30.12 in - West 6.9 mph - N/A   Clear
2:30 AM 55.4 °F 51.8 °F 88% 30.12 in - West 6.9 mph - N/A   Clear
3:00 AM 53.6 °F 50.0 °F 88% 30.12 in - West 5.8 mph - N/A   Clear
3:30 AM 51.8 °F 50.0 °F 94% 30.09 in - SSW 4.6 mph - N/A   Clear
4:00 AM 50.0 °F 48.2 °F 94% 30.12 in - SW 6.9 mph - N/A   Clear
4:30 AM 51.8 °F 50.0 °F 94% 30.12 in - WSW 6.9 mph - N/A   Clear
5:00 AM 51.8 °F 50.0 °F 94% 30.12 in - West 5.8 mph - N/A   Clear
5:30 AM 50.0 °F 50.0 °F 100% 30.12 in - West 5.8 mph - N/A   Clear
6:00 AM 51.8 °F 50.0 °F 94% 30.12 in - West 4.6 mph - N/A   Clear
6:30 AM 51.8 °F 50.0 °F 94% 30.12 in - West 4.6 mph - N/A   Clear
7:00 AM 51.8 °F 48.2 °F 88% 30.09 in - WSW 4.6 mph - N/A   Clear
7:30 AM 51.8 °F 48.2 °F 88% 30.09 in - SW 3.5 mph - N/A   Clear
8:00 AM 52 °F 48 °F 82% 30.13 in 19 mi West 2.2 mph - -   Mostly Cloudy
8:00 AM 51.8 °F 48.2 °F 88% 30.12 in - WSW 3.5 mph - N/A   Clear
8:30 AM 53.6 °F 48.2 °F 82% 30.12 in - SSW 2.3 mph - N/A   Clear
9:00 AM 55.4 °F 50.0 °F 82% 30.12 in - West 4.6 mph - N/A   Clear
9:30 AM 57.2 °F 48.2 °F 72% 30.12 in - West 9.2 mph - N/A   Clear
10:00 AM 59.0 °F 48.2 °F 67% 30.12 in 6.2 mi West 6.9 mph - N/A   Partly Cloudy
10:30 AM 59.0 °F 46.4 °F 63% 30.12 in 6.2 mi West 4.6 mph - N/A   Partly Cloudy
11:00 AM 60.8 °F 46.4 °F 59% 30.12 in 6.2 mi WSW 5.8 mph - N/A   Partly Cloudy
11:30 AM 60.8 °F 48.2 °F 63% 30.12 in 6.2 mi West 5.8 mph - N/A   Partly Cloudy
12:00 PM 60.8 °F 46.4 °F 59% 30.12 in 6.2 mi West 8.1 mph - N/A   Partly Cloudy
12:30 PM 60.8 °F 44.6 °F 55% 30.09 in 6.2 mi WSW 8.1 mph - N/A   Partly Cloudy
1:00 PM 62.6 °F 46.4 °F 55% 30.09 in 6.2 mi West 9.2 mph - N/A   Partly Cloudy
1:30 PM 60.8 °F 44.6 °F 55% 30.09 in 6.2 mi West 10.4 mph - N/A   Partly Cloudy
2:00 PM 64 °F 43 °F 34% 30.08 in 25 mi WNW 8.9 mph - -   Mostly Cloudy
2:00 PM 64.4 °F 44.6 °F 49% 30.09 in 6.2 mi West 11.5 mph - N/A   Scattered Clouds
2:30 PM 62.6 °F 42.8 °F 48% 30.09 in 6.2 mi West 10.4 mph - N/A   Partly Cloudy
3:00 PM 62.6 °F 44.6 °F 52% 30.09 in 6.2 mi West 12.7 mph - N/A   Partly Cloudy
3:30 PM 60.8 °F 42.8 °F 52% 30.09 in 6.2 mi West 10.4 mph - N/A   Partly Cloudy
4:00 PM 64.4 °F 44.6 °F 49% 30.06 in 6.2 mi West 9.2 mph - N/A   Partly Cloudy
4:30 PM 62.6 °F 42.8 °F 48% 30.06 in - WSW 9.2 mph - N/A   Clear
5:00 PM 64.4 °F 42.8 °F 45% 30.06 in - West 6.9 mph - N/A   Clear
5:30 PM 62.6 °F 48.2 °F 59% 30.06 in 6.2 mi WNW 9.2 mph - N/A   Partly Cloudy
6:00 PM 59.0 °F 48.2 °F 67% 30.06 in - North 8.1 mph - N/A   Clear
6:30 PM 59.0 °F 46.4 °F 63% 30.06 in - NNW 5.8 mph - N/A   Clear
7:00 PM 59.0 °F 48.2 °F 67% 30.06 in - NNW 5.8 mph - N/A   Clear
7:30 PM 57.2 °F 48.2 °F 72% 30.06 in - NNW 5.8 mph - N/A   Clear
8:00 PM 54 °F 46 °F 67% 30.10 in 19 mi NNW 6.7 mph - -   Partly Cloudy
8:00 PM 55.4 °F 46.4 °F 72% 30.09 in - NNW 6.9 mph - N/A   Clear
8:30 PM 53.6 °F 46.4 °F 77% 30.09 in - North 6.9 mph - N/A   Clear
9:00 PM 53.6 °F 46.4 °F 77% 30.09 in - North 4.6 mph - N/A   Clear
9:30 PM 51.8 °F 46.4 °F 82% 30.09 in - North 3.5 mph - N/A   Clear
10:00 PM 51.8 °F 46.4 °F 82% 30.09 in - North 3.5 mph - N/A   Clear
10:30 PM 51.8 °F 46.4 °F 82% 30.09 in - NW 2.3 mph - N/A   Clear
11:00 PM 50.0 °F 46.4 °F 87% 30.12 in - SW 2.3 mph - N/A   Clear
11:30 PM 50.0 °F 46.4 °F 87% 30.12 in - South 3.5 mph - N/A   Clear